Location: Labarthe
(43.4735°N, 0.5794°E)
Time: 03:25:59
(UTC+00:00)

Daily predictions for brighter satellites

Satellite Brightness Start Highest point End
(mag) Time Altitude Azimuth Time Altitude Azimuth Time Altitude Azimuth
COSMOS 2455 4.2 00:04:46 23° ESE 00:05:36 24° ESE 00:10:17 10° NE
MetOp-A 3.3 00:06:33 77° NW 00:06:33 77° NW 00:10:09 10° NNW
Nadezhda 1 Rocket 4.0 00:04:29 45° SSW 00:06:23 70° W 00:12:35 10° N
Cosmos 2082 Rocket 2.5 00:02:51 10° NW 00:08:16 49° WSW 00:09:02 46° SW
Cosmos 2278 Rocket 3.9 00:06:22 13° WSW 00:10:30 28° NW 00:15:21 10° N
NOSS 3-1 (A) 4.5 00:14:36 20° ESE 00:14:36 20° ESE 00:18:03 10° ENE
Cosmos 1110 Rocket 4.3 00:11:10 10° NNW 00:16:06 46° WSW 00:16:32 45° WSW
SL-8 R/B 3.6 00:15:45 46° WSW 00:17:07 81° NNW 00:21:54 10° ENE
CZ-4C R/B 4.5 00:14:03 10° NNE 00:16:54 30° E 00:16:54 30° E
Cosmos 1356 Rocket 4.5 00:14:09 10° N 00:17:50 34° ENE 00:18:25 32° E
Cosmos 1452 Rocket 3.5 00:14:52 10° NNW 00:20:06 68° WSW 00:20:55 58° SSW
USA 308 4.2 00:23:07 24° E 00:23:07 24° E 00:25:09 10° ENE
NOSS 3-1 (C) 2.7 00:22:32 65° SSE 00:22:57 70° ESE 00:28:14 10° NE
CZ-3B R/B 3.8 00:28:33 38° SSW 00:31:31 76° SE 00:56:48 10° NE
Cosmos 972 Rocket 4.0 00:28:20 10° NNW 00:33:56 70° WSW 00:34:56 56° SSW
COSMOS 2406 3.2 00:30:12 10° NNW 00:35:50 65° WSW 00:37:01 52° SSW
Cosmos 2341 Rocket 3.9 00:29:57 10° N 00:36:14 88° E 00:38:22 44° S
SL-8 Rocket 3.9 00:33:46 10° N 00:39:56 83° W 00:41:58 45° S
SL-4 R/B 2.9 00:42:23 30° ENE 00:42:23 30° ENE 00:44:07 10° ENE
Cosmos 2297 3.6 00:45:21 50° SSW 00:46:56 81° ESE 00:52:41 10° NNE
Cosmos 2369 Rocket 2.1 00:50:46 47° SW 00:52:25 80° WNW 00:58:03 10° NNE
Lacrosse 4 Rocket 2.9 00:49:51 10° NNW 00:53:43 34° NE 00:56:30 16° ESE
DELTA 2 DEB (DPAF) 3.7 00:50:28 10° NNE 00:53:47 63° E 00:53:47 63° E
CZ-2C R/B 3.3 00:55:17 34° WSW 00:55:55 35° W 01:00:42 10° NNW
USA 290 2.9 00:54:43 10° NNW 00:57:15 51° N 00:57:15 51° N
Cosmos 1959 Rocket 4.4 00:51:53 10° N 00:58:06 78° W 01:00:25 41° S
Cosmos 2228 Rocket 3.7 00:59:27 39° W 01:00:01 41° WNW 01:04:11 10° N
ADEOS Rocket 4.0 00:57:20 10° NNE 01:03:00 35° E 01:05:49 23° SE
USA 276 3.9 01:09:04 24° NW 01:09:45 26° NNW 01:12:20 10° NE
Cosmos 1818 3.5 01:09:43 47° SSW 01:11:21 82° ESE 01:16:49 10° NE
In-Cosmos 22 Rocket 4.4 01:09:23 38° SSE 01:11:22 63° E 01:16:52 10° NNE
ARIANE 6 FM1 Upper Stage 3.7 01:16:12 30° W 01:17:34 40° NW 01:21:28 10° NNE
Cosmos 1300 Rocket 3.4 01:13:52 10° N 01:18:13 88° W 01:19:07 56° S
Cosmos 1315 Rocket 4.1 01:16:26 10° NW 01:19:10 25° W 01:19:10 25° W
Cosmos 1703 Rocket 4.1 01:25:41 39° WSW 01:26:28 44° WNW 01:30:40 10° N
Cosmos 2181 Rocket 4.3 01:25:44 34° SW 01:28:19 55° WNW 01:34:35 10° N
ATLAS 5 CENTAUR R/B 3.1 01:30:58 14° WNW 01:31:55 15° NW 01:33:50 10° N
Nadezhda 3 Rocket 3.9 01:29:57 34° S 01:32:50 89° W 01:39:08 10° N
Cosmos 1339 Rocket 4.5 01:32:02 31° S 01:35:06 75° E 01:41:11 10° N
Meteor 1-21 Rocket 4.5 01:32:42 31° S 01:35:37 70° E 01:41:31 10° NNE
Cosmos 407 Rocket 4.3 01:37:55 25° SSE 01:40:19 40° ESE 01:45:04 10° NE
PSLV R/B 4.1 01:37:37 10° N 01:41:22 51° WNW 01:42:06 43° WSW
SJ 16-02 2.7 01:39:46 21° SE 01:41:32 29° E 01:45:13 10° NE
Cosmos 921 Rocket 3.1 01:41:10 41° SSE 01:42:27 64° ESE 01:46:36 10° NNE
USA 308 3.7 01:41:52 26° WNW 01:43:27 40° NNW 01:47:28 10° NE
Nimbus 7 Rocket 4.3 01:38:43 10° NNE 01:44:39 90° SE 01:47:36 31° SSW
ACS3 Solar Sail 3.1 01:40:46 10° NNW 01:45:17 25° WNW 01:48:09 17° WSW
Spot 1 4.5 01:44:10 10° N 01:49:06 65° WNW 01:51:01 35° SW
COSMOS 2455 3.1 01:47:52 28° SW 01:51:02 60° NW 01:57:01 10° NNE
IDEFIX/ARIANE 42P 2.5 01:49:23 10° NNE 01:54:39 85° WNW 01:57:12 31° SSW
Cosmos 540 Rocket 4.3 01:50:24 10° N 01:55:20 49° ENE 02:00:15 10° SE
Iridium 82 4.0 02:00:15 56° WNW 02:00:15 56° WNW 02:02:54 10° N
SL-19 R/B 4.4 01:59:03 25° SE 02:00:46 57° ENE 02:04:00 10° N
ADEOS II 4.3 01:58:27 10° NE 02:02:06 19° E 02:05:44 10° SE
Meteor 1-11 4.3 02:00:23 24° S 02:03:46 74° E 02:09:25 10° NNE
NOSS 3-1 (A) 3.5 02:01:56 25° WSW 02:04:28 51° NW 02:09:54 10° NNE
Resurs 1-4 Rocket 3.3 02:07:43 10° NNE 02:12:32 35° E 02:17:13 10° SSE
Cosmos 1140 Rocket 4.0 02:11:29 26° SW 02:14:03 46° WNW 02:18:58 10° N
Cosmos 1656 3.9 02:11:00 23° S 02:14:20 63° ESE 02:19:47 10° NNE
Cosmos 1346 Rocket 2.9 02:14:57 35° SW 02:16:03 49° WNW 02:19:36 10° N
H-2A R/B 3.5 02:13:20 10° NNE 02:18:02 32° E 02:22:35 10° SSE
SL-4 R/B 3.5 02:15:52 10° WNW 02:18:30 24° NNW 02:21:06 10° NE
Cosmos 1605 Rocket 4.2 02:14:35 10° N 02:20:54 75° E 02:27:05 10° SSE
COSMOS 2441 4.4 02:17:28 10° NNE 02:22:22 81° ESE 02:25:39 21° S
Cosmos 371 Rocket 3.3 02:23:01 26° SSW 02:25:43 70° WNW 02:30:34 10° NNE
Cosmos 1763 Rocket 3.3 02:22:06 10° NNW 02:27:10 79° WSW 02:32:11 10° SSE
Cosmos 304 Rocket 4.0 02:25:25 25° SW 02:28:02 57° WNW 02:32:44 10° NNE
Cosmos 1809 Rocket 4.5 02:23:30 18° S 02:28:12 89° W 02:34:25 10° N
Lacrosse 4 Rocket 2.5 02:27:55 10° NW 02:31:18 24° WSW 02:31:50 23° WSW
Cosmos 2297 Rocket 3.2 02:29:41 10° NNW 02:35:11 49° ENE 02:40:39 10° SE
Cosmos 1535 Rocket 4.5 02:30:49 10° N 02:37:08 79° W 02:43:18 10° S
Cosmos 2369 Rocket 4.4 02:34:12 10° WNW 02:37:22 15° NW 02:40:32 10° N
Cosmos 1025 Rocket 3.0 02:34:41 19° S 02:37:44 90° SE 02:42:07 10° N
OPS 8737 4.2 02:35:00 10° NW 02:38:06 78° NE 02:41:16 10° SE
MOZ.5/SAFIR/RUBIN 5/SL-8 3.7 02:35:42 10° S 02:40:13 79° WSW 02:44:52 10° NNW
FENGYUN 3A 4.3 02:37:55 10° N 02:42:59 43° WNW 02:46:39 18° SW
USA 276 4.4 02:40:37 10° NW 02:43:04 23° N 02:45:37 10° ENE
Lacrosse 5 rocket 4.1 02:43:14 10° NNW 02:45:09 14° NNE 02:47:01 10° NE
CZ-2D R/B 2.5 02:39:57 10° NNE 02:45:23 63° ESE 02:50:42 10° S
ADEOS Rocket 3.8 02:42:48 10° N 02:48:30 37° WNW 02:52:44 15° SW
DMSP B5D2-2 4.1 02:45:59 10° S 02:51:12 70° WSW 02:56:28 10° NNW
ATLAS 3B R/B 4.0 02:46:03 10° S 02:52:54 39° ESE 03:00:02 10° NE
NOSS 2-2 (C) 3.5 02:50:43 10° NW 02:54:38 72° SW 03:00:04 10° SSE
ALOS 2.3 02:50:12 10° NNE 02:54:47 77° ESE 02:59:09 11° S
Cosmos 468 Rocket 3.9 02:53:00 10° NNW 02:58:08 86° WSW 03:03:14 10° SSE
SL-24 DEB 4.3 02:54:34 13° SSW 02:58:19 54° W 03:02:40 10° NNW
Cosmos 2360 4.3 02:54:41 16° SW 02:59:16 69° WNW 03:04:58 10° NNE
Cosmos 1455 Rocket 3.7 03:01:32 10° N 03:05:48 58° E 03:10:03 10° SSE
Cosmos 1153 Rocket 4.5 03:00:49 10° N 03:07:03 86° W 03:13:11 10° S
Cosmos 405 Rocket 3.6 03:06:51 15° WSW 03:08:23 22° WNW 03:10:48 10° NNW
Cosmos 2292 Rocket 2.6 03:06:53 13° S 03:09:28 81° W 03:12:44 10° N
Cosmos 2084 Rocket 3.5 03:07:47 13° SSW 03:11:15 63° SE 03:15:15 10° NE
Okean 2 Rocket 3.3 03:08:50 10° NNW 03:13:05 52° W 03:17:17 10° S
Cosmos 374 Rocket 4.2 03:09:55 14° SW 03:13:21 83° NW 03:17:07 10° NE
Envisat 3.4 03:08:46 10° N 03:13:40 51° WNW 03:18:23 11° SW
SeaSat 1 2.4 03:10:35 10° SSE 03:15:28 78° WSW 03:20:24 10° NNW
SJ 16-02 2.7 03:16:15 11° WSW 03:19:34 25° WNW 03:23:07 10° N
CENTAUR R/B 3.6 03:11:23 10° NW 03:19:49 78° NE 03:29:22 10° SE
Cosmos 1727 Rocket 4.0 03:13:39 10° S 03:19:53 79° W 03:26:07 10° N
USA 229 DEB 3.6 03:18:23 10° SSW 03:24:13 75° ESE 03:30:49 10° NE
BREEZE-M DEB (TANK) 4.1 03:14:20 10° W 03:24:16 45° N 03:27:29 10° ENE
USA 229 3.6 03:18:26 10° SSW 03:24:17 74° ESE 03:30:51 10° NE
Cosmos 292 Rocket 4.1 03:23:03 10° S 03:27:46 68° ESE 03:32:30 10° NNE
Cosmos 968 Rocket 4.0 03:22:51 10° S 03:27:59 60° ESE 03:33:08 10° NNE
Meteor 2-16 Rocket 4.5 03:22:07 10° SSW 03:28:11 70° W 03:34:16 10° N
Cosmos 1862 3.2 03:26:12 10° S 03:29:42 76° E 03:33:15 10° NNE
Cosmos 2221 Rocket 4.3 03:28:01 10° SW 03:32:13 39° WNW 03:36:29 10° N
SL-16 R/B 3.4 03:26:24 10° SE 03:32:24 56° ENE 03:38:26 10° N
Cosmos 1459 Rocket 4.1 03:26:52 10° N 03:33:04 87° E 03:39:21 10° S
Cosmos 841 Rocket 3.5 03:28:17 10° NNW 03:33:32 86° WSW 03:38:41 10° SSE
Cosmos 2173 Rocket 4.1 03:27:46 10° N 03:34:08 86° W 03:40:21 10° S
METEOR-M 4.2 03:29:20 10° NNE 03:34:42 85° WNW 03:40:02 10° SSW
Cosmos 1954 Rocket 4.4 03:34:44 10° SW 03:39:44 49° WNW 03:44:45 10° N
NOSS 2-2 (E) 3.6 03:36:52 10° NW 03:40:45 86° SW 03:46:08 10° SSE
ADEOS II 2.3 03:36:52 10° N 03:41:59 57° WNW 03:47:05 10° SSW
SL-8 R/B 4.3 03:37:51 10° WNW 03:42:35 62° NNE 03:47:18 10° E
Cosmos 2100 Rocket 4.0 03:36:20 10° NNW 03:42:35 73° W 03:48:45 10° S
Cosmos 2016 Rocket 4.5 03:39:25 10° N 03:45:36 69° E 03:51:51 10° SSE
Cosmos 1697 Rocket 2.8 03:41:57 10° SSW 03:47:33 71° WNW 03:53:11 10° NNE
